Regional Weather Roundup
Issued by NWS

Home | Current Version | Previous Version | Text Only | Print | Product List | Glossary Off
Versions: 1 2 3 4 5 6 7 8 9 10 11 12 13 14 15 16 17 18 19 20 21 22 23 24 25 26 27 28 29 30 31 32 33 34 35 36 37 38 39 40 41 42 43 44 45 46 47 48 49 50

000
ASUS43 KMPX 080510
RWRMN
WEATHER ROUNDUP FOR MINNESOTA
NATIONAL WEATHER SERVICE TWIN CITIES/CHANHASSEN MN
1100 PM CST WED DEC 07 2016


NOTE: "FAIR" INDICATES FEW OR NO CLOUDS BELOW 12,000 FEET WITH NO
SIGNIFICANT WEATHER AND/OR OBSTRUCTIONS TO VISIBILITY. N/A MEANS
CURRENT SKY AND/OR WEATHER CONDITIONS ARE NOT AVAILABLE.

MNZ060>063-068>070-080600-
   Twin Cities Metro

CITY           SKY/WX    TMP DP  RH WIND       PRES   REMARKS
TWIN CITIES    FLURRIES  16   8  71 W20G25    30.14R WCI  -1
ST PAUL        FLURRIES  17  10  74 W16G24    30.15R WCI   2
CRYSTAL        LGT SNOW  16   8  71 W18       30.13R WCI   0
BLAINE         FLURRIES  18  12  79 W17       30.11R WCI   2
LAKEVILLE      LGT SNOW  12   9  85 W18G26    30.14S WCI  -5
EDEN PRAIRIE   FLURRIES  16   8  71 W16G25    30.14R WCI   1
SOUTH ST PAUL  LGT SNOW  17  10  73 W13       30.13R WCI   4
LAKE ELMO      FLURRIES  18  12  79 W14G23    30.12R WCI   4
$$
MNZ001>005-007-008-013>017-022>024-027-028-080600-
   Northwest Minnesota

CITY           SKY/WX    TMP DP  RH WIND       PRES   REMARKS
BEMIDJI        FLURRIES  18  15  88 NW15      30.06R WCI   4
HALLOCK        CLOUDY    19  16  86 N23G30    30.22R WCI   2
ROSEAU         CLOUDY    19  16  86 NW14G20   30.14R WCI   6
WARROAD        FLURRIES  18  16  93 NW12      30.12R WCI   5
THIEF RVR FALL FLURRIES  19  16  88 N17       30.16R WCI   4
CROOKSTON      LGT SNOW  19  19 100 N30       30.20R WCI   0
FOSSTON        LGT SNOW  18  16  93 NW13      30.12R WCI   4
DETROIT LAKES  LGT SNOW  19  18  93 NW18G25   30.13R WCI   4
MOORHEAD       MIX PCPN  18  14  86 NW24      30.22R WCI   0
PARK RAPIDS    FLURRIES  19  12  74 NW13      30.06R WCI   6
$$
MNZ006-009>011-018-025>026-080600-
   North Central Minnesota

CITY           SKY/WX    TMP DP  RH WIND       PRES   REMARKS
BAUDETTE       LGT SNOW  21  16  81 N18       30.06R WCI   6
FLAG ISLAND    CLOUDY    21  18  86 N22G28    30.10R WCI   5
INTL FALLS     LGT SNOW  22  17  81 N14       30.00R WCI   9
WASKISH        CLOUDY    19  18  93 NW12G17   30.06R WCI   7
BIG FORK       FLURRIES  21  18  86 NW7       29.99R WCI  13
LONGVILLE      LGT SNOW  21  19  93 NW9       30.02R WCI  11
GRAND RAPIDS   LGT SNOW  22  19  89 NW14      30.00R FOG     WCI   9
CRANE LAKE     LGT SNOW  21  19  93 N10       29.96R WCI  10
ORR            LGT SNOW  21  18  86 NW9       29.93R WCI  11
COOK           LGT SNOW  19  18  93 NW7       29.94R WCI  10
$$
MNZ012-019>021-037-080600-
   Northeast Minnesota

CITY           SKY/WX    TMP DP  RH WIND       PRES   REMARKS
DULUTH         FLURRIES  19  15  84 W13       29.91R WCI   6
ELY            FLURRIES  21  18  86 NW8       29.89R WCI  12
HIBBING        LGT SNOW  21  17  84 NW14      29.94R FOG     WCI   8
EVELETH        LGT SNOW  22  19  85 NW12      29.93R WCI  11
DULUTH HARBOR  FLURRIES  21  18  86 SW13      29.99R WCI   9
TWO HARBORS    CLOUDY    21  16  79 W6        29.89R WCI  14
SILVER BAY     FLURRIES  21  18  86 CALM      29.87R
GRAND MARAIS     N/A     26  19  74 N10G23    29.83R WCI  16
G MARAIS ARPRT LGT SNOW  18  14  86 NW10G16   29.79R WCI   6
$$
MNZ029>031-032-039>041-046>048-054>057-064-080600-
   West Central Minnesota

CITY           SKY/WX    TMP DP  RH WIND       PRES   REMARKS
FERGUS FALLS   LGT SNOW  12  10  92 NW25G31   30.24R WCI  -8
WHEATON        LGT SNOW  14  10  85 W21G29    30.27R WCI  -4
MORRIS         LGT SNOW  12   9  85 NW23G32   30.21R WCI  -7
ALEXANDRIA     LGT SNOW  13  10  88 NW22G28   30.14R FOG     WCI  -6
ELBOW LAKE     LGT SNOW  12  10  92 NW18G28   30.19R WCI  -5
WADENA         LGT SNOW  18  12  79 W10G17    30.09R WCI   6
GLENWOOD       LGT SNOW  12   9  85 W22       30.15R WCI  -7
APPLETON       LGT SNOW  14  10  85 NW22G29   30.24R WCI  -4
BENSON         LGT SNOW  12   9  85 NW20G30   30.21R WCI  -6
ORTONVILLE     FLURRIES  12   7  79 NW22G30   30.25R WCI  -7
MADISON        LGT SNOW  16  10  79 W21G28    30.27S WCI  -2
WILLMAR        LGT SNOW  14  10  85 W20G26    30.20R WCI  -3
$$
MNZ033>034-036-042>043-049>051-058-059-080600-
   Central Minnesota

CITY           SKY/WX    TMP DP  RH WIND       PRES   REMARKS
ST CLOUD       LGT SNOW  14  10  84 W20G26    30.12R FOG     WCI  -3
PAYNESVILLE    FLURRIES  13   9  83 W21G26    30.16R WCI  -5
AITKIN         MIX PCPN  19  12  73 W6        30.00R WCI  11
PINE RIVER     CLOUDY    18  16  93 W6        30.07R WCI   9
BRAINERD       CLOUDY    18  13  80 W13G21    30.05R WCI   5
STAPLES        FLURRIES  16  12  86 W15       30.08R WCI   1
LONG PRAIRIE   LGT SNOW  14  10  85 W16G25    30.11R WCI  -2
LITTLE FALLS   LGT SNOW  16  10  79 W12       30.09R WCI   3
LITCHFIELD     FLURRIES  14  10  85 W15G25    30.17R WCI  -1
BUFFALO        FLURRIES  15   9  76 W18G25    30.15R WCI  -1
MAPLE LAKE     FLURRIES  16  11  81 W17G25    30.14S WCI   0
HUTCHINSON     FLURRIES  15  10  81 W25       30.18R WCI  -5
$$
MNZ037-044-045-052-053-080600-
   East Central Minnesota

CITY           SKY/WX    TMP DP  RH WIND       PRES   REMARKS
PRINCETON      LGT SNOW  16  10  79 W13       30.09R WCI   2
MORA           LGT SNOW  18  12  79 W10       30.07R WCI   6
CAMBRIDGE      LGT SNOW  18   9  68 W12       30.07R WCI   5
RUSH CITY      CLOUDY    16  12  86 W12       30.07R WCI   3
MOOSE LAKE     LGT SNOW  19  14  79 W8        29.99R WCI   9
HINCKLEY       FLURRIES  18  14  86 W12       30.03R WCI   5
CLOQUET        FLURRIES  19  14  79 W12       29.95R WCI   7
MCGREGOR       CLOUDY    19  18  93 W8        30.00R WCI   9
$$
MNZ071>073-080-081-089-090-097-098-080600-
   Southwest Minnesota

CITY           SKY/WX    TMP DP  RH WIND       PRES   REMARKS
MONTEVIDEO     LGT SNOW  12   9  85 NW14G23   30.26R WCI  -3
GRANITE FALLS  LGT SNOW  14   9  81 W22G31    30.28R WCI  -5
CANBY          CLOUDY    13   6  76 NW22G30   30.29R WCI  -6
MARSHALL       FLURRIES  10   5  80 W23       30.27R WCI -10
REDWOOD FALLS  CLOUDY    13   5  70 W22G30    30.24S WCI  -6
OLIVIA         LGT SNOW  16  10  79 W22       30.21R WCI  -2
PIPESTONE      CLEAR      9   1  72 NW21G30   30.28R WCI -11
WINDOM         CLEAR     10   3  72 W25       30.24R WCI -10
WORTHINGTON    CLEAR      7   2  80 W24G30    30.28R WCI -14
JACKSON        CLEAR      9   3  78 W21G29    30.25R WCI -11
TRACY          CLOUDY    11   6  79 W16G25    30.27R HAZE    WCI  -6
SLAYTON        CLEAR      7   2  80 W24G32    30.26R WCI -15
$$
MNZ065>067-074>077-082>085-091>093-080600-
   South Central Minnesota

CITY           SKY/WX    TMP DP  RH WIND       PRES   REMARKS
MANKATO        FLURRIES  12   7  80 W15       30.21R WCI  -4
NEW ULM        LGT SNOW  10   7  85 W25G35    30.22R WCI -10
ST JAMES       PTCLDY    10   5  79 W23G31    30.25S WCI -10
FAIRMONT       CLEAR     11   4  73 NW20      30.26R WCI  -7
GLENCOE        CLOUDY    15  11  84 W22G29    30.17R WCI  -3
OWATONNA       CLOUDY    12   7  79 W18       30.17S WCI  -5
WASECA         MOCLDY    12   7  79 W16G23    30.21R WCI  -4
ALBERT LEA     CLEAR     16   9  73 W13G25    30.19R WCI   2
$$
MNZ078>079-086>088-094>096-080600-
   Southeast Minnesota

CITY           SKY/WX    TMP DP  RH WIND       PRES   REMARKS
ROCHESTER      LGT SNOW  13   7  77 W21G31    30.13R WCI  -5
RED WING       FLURRIES  18   9  68 W15G21    30.13R WCI   3
STANTON        FLURRIES  16  10  76 W16G23    30.15R WCI   0
DODGE CENTER   PTCLDY    12   7  79 W20       30.14R WCI  -6
WINONA         CLOUDY    19  12  73 W13G23    30.16R WCI   7
AUSTIN         CLEAR     10   5  79 W18G26    30.17S WCI  -8
PRESTON        LGT SNOW  12   7  79 W20G26    30.14S WCI  -6
$$
ABBREVIATIONS USED IN REMARKS
   TC - TEMPERATURES IN CELSIUS
  WCI - WIND CHILL INDEX
   HX - HEAT INDEX
  VSB - VISIBILITY
$$



USA.gov is the U.S. government's official web portal to all federal, state and local government web resources and services.